Regional Weather Roundup
Issued by NWS

Home | Current Version | Previous Version | Graphics & Text | Print | Product List | Glossary On
Versions: 1 2 3 4 5 6 7 8 9 10 11 12 13 14 15 16 17 18 19 20 21 22 23 24 25 26 27 28 29 30 31 32 33 34 35 36 37 38 39 40 41 42 43 44 45 46 47 48 49 50
000
ASUS43 KMKX 171821
RWRWI

WISCONSIN REGIONAL WEATHER ROUNDUP
NATIONAL WEATHER SERVICE MILWAUKEE/SULLIVAN WI
100 PM CDT WED SEP 17 2014

NOTE: "FAIR" INDICATES FEW OR NO CLOUDS BELOW 12,000 FEET WITH NO
SIGNIFICANT WEATHER AND/OR OBSTRUCTIONS TO VISIBILITY.

WIZ001-002-006>008-014>016-023>028-171900-
NORTHWEST WISCONSIN

CITY           SKY/WX    TMP DP  RH WIND       PRES   REMARKS
SUPERIOR ARPT  FAIR      69  51  52 NE5       29.94R
6HR MIN TEMP:  38; 6HR MAX TEMP:  69;

ASHLAND        FAIR      61  52  72 NE20      29.98R
6HR MIN TEMP:  44; 6HR MAX TEMP:  68;

HAYWARD        FAIR      69  48  47 MISG      29.96R
6HR MIN TEMP:  36; 6HR MAX TEMP:  69;

SIREN          FAIR      69  51  51 NE6       29.96S
6HR MIN TEMP:  45; 6HR MAX TEMP:  69;

RICE LAKE      FAIR      67  51  55 CALM      29.98S
6HR MIN TEMP:  44; 6HR MAX TEMP:  67;

LADYSMITH      PTSUNNY   68  53  58 W3        29.98S
6HR MIN TEMP:  42; 6HR MAX TEMP:  68;

EAU CLAIRE     FAIR      69  51  52 VRB5      29.96S
6HR MIN TEMP:  45; 6HR MAX TEMP:  69;

MENOMONIE      NOT AVBL
NEW RICHMOND   NOT AVBL
OSCEOLA        NOT AVBL
$$

WIZ003>005-009-010-017-018-171900-
NORTH CENTRAL WISCONSIN

CITY           SKY/WX    TMP DP  RH WIND       PRES   REMARKS
WOODRUFF       SUNNY     66  46  49 N6        29.95S
6HR MIN TEMP:  39; 6HR MAX TEMP:  66;

RHINELANDER    SUNNY     65  46  50 W12       29.96S
6HR MIN TEMP:  42; 6HR MAX TEMP:  66;

EAGLE RIVER    SUNNY     65  43  44 NW5       29.94S
6HR MIN TEMP:  36; 6HR MAX TEMP:  65;

LAND O LAKES   SUNNY     67  44  44 W7        29.95R
6HR MIN TEMP:  36; 6HR MAX TEMP:  67;

PHILLIPS       PTSUNNY   66  49  55 SW7       29.95S
6HR MIN TEMP:  40; 6HR MAX TEMP:  67;

TOMAHAWK       PTSUNNY   65  46  49 NW5       29.96S
6HR MIN TEMP:  35; 6HR MAX TEMP:  66;

MEDFORD        FAIR      65  50  58 W5        29.97S
6HR MIN TEMP:  42; 6HR MAX TEMP:  65;

MERRILL        CLOUDY    67  49  52 NW7       29.95F
6HR MIN TEMP:  34; 6HR MAX TEMP:  67;

$$

WIZ029-030-035-036-043>047-171900-
CENTRAL WISCONSIN

CITY           SKY/WX    TMP DP  RH WIND       PRES   REMARKS
WAUSAU         SUNNY     67  48  50 W9        29.95F
6HR MIN TEMP:  40; 6HR MAX TEMP:  68;

MOSINEE        NOT AVBL
MARSHFIELD     PTSUNNY   66  50  56 W5        29.98S
6HR MIN TEMP:  41; 6HR MAX TEMP:  68;

STEVENS POINT  FAIR      64  47  53 W12       29.98S
6HR MIN TEMP:  34; 6HR MAX TEMP:  64;

WAUPACA        NOT AVBL
WAUTOMA        FAIR      69  47  45 SW8       29.98F
6HR MIN TEMP:  36; 6HR MAX TEMP:  70;

WISC RAPIDS    FAIR      68  48  48 SW8       29.99F
6HR MIN TEMP:  38; 6HR MAX TEMP:  68;

CAMP DOUGLAS   MOSUNNY   68  52  56 W8        29.99S
$$

WIZ011>013-019>022-031-037>040-048>050-171900-
NORTHEAST WISCONSIN

CITY           SKY/WX    TMP DP  RH WIND       PRES   REMARKS
ANTIGO         MOSUNNY   64  47  54 W3        29.96S
6HR MIN TEMP:  37; 6HR MAX TEMP:  66;

STURGEON BAY   SUNNY     66  46  48 W10       29.95F
6HR MIN TEMP:  48; 6HR MAX TEMP:  64;

GREEN BAY      MOSUNNY   69  48  47 W13       29.96F
6HR MIN TEMP:  42; 6HR MAX TEMP:  69;

MANITOWOC      MOSUNNY   67  47  48 W8        29.98S
6HR MIN TEMP:  48; 6HR MAX TEMP:  67;

APPLETON       MOSUNNY   66  46  48 W9        29.98F
CLINTONVILLE   SUNNY     68  46  45 W10       29.96F
OSHKOSH        MOSUNNY   67  49  52 W9        29.98S
6HR MIN TEMP:  45; 6HR MAX TEMP:  68;

$$

WIZ032>034-041-042-053>061-171900-
SOUTHWEST WISCONSIN

CITY           SKY/WX    TMP DP  RH WIND       PRES   REMARKS
LA CROSSE      PTSUNNY   68  52  56 VRB5      29.98F
6HR MIN TEMP:  50; 6HR MAX TEMP:  69;

SPARTA         CLOUDY    67  49  53 SW3       29.99S
6HR MIN TEMP:  39; 6HR MAX TEMP:  67;

VIROQUA        FAIR      66  49  54 SW5       30.00F
6HR MIN TEMP:  48; 6HR MAX TEMP:  66;

BOSCOBEL       FAIR      69  49  48 VRB5      30.00F
6HR MIN TEMP:  45; 6HR MAX TEMP:  69;

PRAIRIE DU CHI NOT AVBL
PLATTEVILLE    PTSUNNY   66  49  53 SW5       30.02S
6HR MIN TEMP:  45; 6HR MAX TEMP:  66;

$$

WIZ056-057-062-063-064-067-068-171900-
SOUTH CENTRAL WISCONSIN

CITY           SKY/WX    TMP DP  RH WIND       PRES   REMARKS
BARABOO/DELLS  FAIR      66  43  43 W7        30.00S
6HR MIN TEMP:  42; 6HR MAX TEMP:  67;

LONE ROCK      FAIR      70  47  43 CALM      30.00F
6HR MIN TEMP:  43; 6HR MAX TEMP:  70;

WATERTOWN      SUNNY     66  47  49 W5        30.00S
6HR MIN TEMP:  39; 6HR MAX TEMP:  67;

MADISON        FAIR      65  44  46 VRB3      30.00F
6HR MIN TEMP:  40; 6HR MAX TEMP:  66;

MIDDLETON      FAIR      68  45  42 W5        30.01S
6HR MIN TEMP:  40; 6HR MAX TEMP:  68;

MONROE         CLOUDY    64  46  52 S5        30.01S
JANESVILLE     MOSUNNY   68  46  45 S6        30.00F
$$

WIZ051-052-058>065-066-070>072-171900-
SOUTHEAST WISCONSIN

CITY           SKY/WX    TMP DP  RH WIND       PRES   REMARKS
MILWAUKEE      MOSUNNY   67  44  43 SW8       30.00F
6HR MIN TEMP:  48; 6HR MAX TEMP:  67;

WAUKESHA       SUNNY     64  45  48 CALM      30.01F
MILWAUKEE/TIMM SUNNY     63  43  48 SW8       30.01S
RACINE         SUNNY     67  44  43 SW10      30.02F
6HR MIN TEMP:  48; 6HR MAX TEMP:  67;

BURLINGTON     MOSUNNY   65  44  46 SW6       30.01F
6HR MIN TEMP:  34; 6HR MAX TEMP:  65;

KENOSHA        MOSUNNY   65  46  50 VRB7      30.01F
6HR MIN TEMP:  43; 6HR MAX TEMP:  66;

FOND DU LAC    MOSUNNY   67  46  47 SW10G16   29.99S
6HR MIN TEMP:  42; 6HR MAX TEMP:  67;

SHEBOYGAN      MOSUNNY   67  45  45 W9        29.98F
6HR MIN TEMP:  41; 6HR MAX TEMP:  68;

WEST BEND      MOSUNNY   66  43  42 SW9       30.00S
JUNEAU         MOSUNNY   65  46  50 SW8       30.01S
6HR MIN TEMP:  41; 6HR MAX TEMP:  65;

$$

LSZ147-162-171900-
LAKE SUPERIOR

STATION/POSITION TIME  TEMP    WIND        PRES    WAVE
                       AIR SEA DIR/SP/G            HT/PER
                 (UTC) (F)     (DEG/KT/KT) (MB)    (FT/S)
W MID LAKE BUOY  1750   44 45   50/ 19/ 23 1016.4R   5/ 6
DEVILS ISLAND    1800   46      70/ 20/ 22 1017.2R
PORT WING        1700   56      20/ 15/ 18 1014.9R
SAXON HARBOR     1700   59      30/  7/  7 1014.9R
$$

LMZ867-665-643>646-171900-
LAKE MICHIGAN

STATION/POSITION TIME  TEMP    WIND        PRES    WAVE
                       AIR SEA DIR/SP/G            HT/PER
                 (UTC) (F)     (DEG/KT/KT) (MB)    (FT/S)
N MID LAKE BUOY  1750   58 58  210/ 12/ 14 1013.9F   1/ 4
NORTHPORT PIER   1700   65     250/  5/ 10 1013.9F
KEWAUNEE LAKESHO 1800   66     290/  7/  9 1013.7F
SHEBOYGAN LAKESH 1800   59 49  150/  8/  9 1015.7S
PORT WASHINGTON  1700   68     320/  2/  7 1015.9F
ATWATER BUOY     1800   61     130/  8/  8 1017.0S
MILWAUKEE LAKESH 1800   61     130/  9/ 11   N/A
S MID LAKE BUOY  1750   61 65  240/  6/  8 1016.9S   1/ 4
KENOSHA   LAKESH 1800   63     150/ 11/ 12 1015.6F
$$

TC  - TEMPERATURE IN CELSIUS
VSB - VISIBILITY IN STATUTE MILES
WCI - WIND CHILL INDEX
HX  - HEAT INDEX



USA.gov is the U.S. government's official web portal to all federal, state and local government web resources and services.